Overview Statistics Trail Chart Weather Telemetry Raw packets
 

This is the latest recevied weather packets stored in our database for station/object KD7CIH. If no packets are shown the sender has not sent any weather packets the latest 10 day(s).

<< 11 12 13 14 15 16 17 >>
Time Temp. Humidity Pressure Rain* Wind** Luminosity Snow
1788619385 16.67° C 44% 1016.5 hPa 0 mm - - -
1788619086 16.11° C 45% 1016.5 hPa 0 mm - - -
1788618915 15.56° C 45% 1016.5 hPa 0 mm - - -
1788618485 15.56° C 46% 1016.4 hPa 0 mm - - -
1788618439 15.56° C 47% 1016.4 hPa 0 mm - - -
1788618012 15° C 47% 1016.4 hPa 0 mm - - -
1788617587 15° C 48% 1016.4 hPa 0 mm - - -
1788617297 14.44° C 49% 1016.3 hPa 0 mm - - -
1788616987 13.89° C 50% 1016.1 hPa 0 mm - - -
1788616687 13.89° C 50% 1016.4 hPa 0 mm - - -
1788616390 13.89° C 50% 1016.3 hPa 0 mm - - -
1788616087 14.44° C 49% 1016.3 hPa 0 mm - - -
1788615786 14.44° C 47% 1016.1 hPa 0 mm - - -
1788615487 14.44° C 46% 1016 hPa 0 mm - - -
1788615189 14.44° C 46% 1016 hPa 0 mm - - -
1788614887 14.44° C 46% 1016 hPa 0 mm - - -
1788614586 14.44° C 48% 1015.9 hPa 0 mm - - -
1788614287 13.89° C 48% 1015.8 hPa 0 mm - - -
1788614114 13.33° C 49% 1015.8 hPa 0 mm - - -
1788613686 12.78° C 50% 1015.8 hPa 0 mm - - -
1788613386 12.78° C 51% 1015.7 hPa 0 mm - - -
1788613215 12.22° C 51% 1015.5 hPa 0 mm - - -
1788612914 12.22° C 52% 1015.4 hPa 0 mm - - -
1788612615 12.22° C 51% 1015.4 hPa 0 mm - - -
1788612187 12.78° C 50% 1015.4 hPa 0 mm - - -

* Rain latest hour (hover to see other rain measurements)
** Current wind speed in m/s (hover to see current wind gust speed)